Simultaneous Nadir Overpasses (SNOs) Predictions

Prediction of SNOs between FY3D and AQUA Satellite Orbit:

Table of predicted SNOs for the next 14.0 days since TLE Epoch: 5/25/2024
Index Date (FY3D) Time (FY3D) Lat,Lon (FY3D) SZA (FY3D ) Date (AQUA) Time (AQUA) Lat,Lon (AQUA) SZA (AQUA ) Distance(km) Time Diff (sec)
1 05/25/2024 06:30:28 79.42, 63.22 58.91 05/25/2024 06:30:59 79.42, 63.24 58.89 0.57 31
2 05/25/2024 07:21:06 -79.18,-127.51 121.45 05/25/2024 07:20:14 -79.18,-127.47 121.44 0.84 52
3 05/27/2024 18:34:08 -79.44, 62.21 121.49 05/27/2024 18:34:47 -79.44, 62.17 121.50 0.80 39
4 05/27/2024 19:24:47 79.23,-128.79 58.21 05/27/2024 19:24:04 79.23,-128.69 58.21 2.21 43
5 05/30/2024 06:37:49 79.47, 61.09 58.18 05/30/2024 06:38:36 79.47, 61.07 58.17 0.47 47
6 05/30/2024 07:28:27 -79.22,-129.57 122.19 05/30/2024 07:27:51 -79.23,-129.60 122.18 0.80 36
7 06/01/2024 18:41:31 -79.52, 59.74 122.09 06/01/2024 18:42:23 -79.52, 59.82 122.11 1.66 52
8 06/01/2024 19:32:07 79.23,-130.49 57.48 06/01/2024 19:31:38 79.24,-130.56 57.50 1.86 29
9 06/04/2024 06:45:09 79.48, 59.28 57.55 06/04/2024 06:46:07 79.48, 59.25 57.54 0.71 58
10 06/04/2024 07:35:47 -79.23,-131.33 122.82 06/04/2024 07:35:22 -79.23,-131.39 122.81 1.30 25
11 06/06/2024 18:48:49 -79.48, 58.41 122.71 06/06/2024 18:49:50 -79.48, 58.35 122.72 1.36 61



Historial Predications of SNOs between FY3D and AQUA
